Terminal Aerodrome Forecast
Issued by NWS

Home | Current Version | Previous Version | Text Only | Print | Product List | Glossary On
Versions: 1 2 3 4 5 6 7 8 9 10 11 12 13 14 15 16 17 18 19 20 21 22 23 24 25 26 27 28 29 30 31 32 33 34 35
000
FTUS45 KBOI 312338
TAFTWF
TAF
KTWF 312338Z 0100/0124 04008KT P6SM VCTS SCT080CB BKN120
     FM010400 16007KT P6SM SCT100 BKN150
     FM011600 03007KT P6SM SCT150=

USA.gov is the U.S. government's official web portal to all federal, state and local government web resources and services.